TURKSAT 5B

Last updated on Thu Mar 05 2026 00:03:00 GMT+0000 (Coordinated Universal Time)

1 50212U 21126A 26063.24280850 .00000134 00000+0 00000+0 0 9994 2 50212 0.0755 328.4672 0005558 0.9188 321.9808 1.00271781 15240
UTC large
Height (km)
Speed (km/s)
/
Latitude / Longitude
Inclination (degrees)
Orbital Period (minutes)
Azimuth
Elevation
Range (km)
Doppler Factor

Next 0 passes for location: London (51.5072 / 0.1276)

Sorry there are no passes over London.